Skip Page Navigation
NASA JPL Caltech
NASA Logo - Jet Propulsion Laboratory + View the NASA Portal
+ Center for Near-Earth Object Studies
JPL Home Earth Solar System Stars & Galaxies Technology
JPL Solar System Dynamics
BODIES ORBITS EPHEMERIDES TOOLS PHYSICAL DATA DISCOVERY FAQ SITE MAP
IMPORTANT: The SSD Announcement email list is now available. Major changes are coming in the near future, including possible hostname and/or URL changes. To be notified of such changes, subscribe to this email list.

Please visit this page for more details.


JPL Small-Body Database Browser
Search: [ help ]  
413899 (2006 WN5)
Classification: Outer Main-belt Asteroid          SPK-ID: 2413899
Ephemeris | Orbit Diagram | Orbital Elements | Mission Design | Physical Parameters | Discovery Circumstances | Close-Approach Data ]

[ show orbit diagram ]
Orbital Elements at Epoch 2458600.5 (2019-Apr-27.0) TDB
Reference: JPL 10 (heliocentric ecliptic J2000)
 Element Value Uncertainty (1-sigma)   Units 
e .27297442145034 1.0905e-07  
a 4.007788133941336 1.0492e-07 au
q 2.913764486783162 4.4272e-07 au
i 4.396070327245584 9.6341e-06 deg
node 174.919592212828 0.00016227 deg
peri 170.138164136341 0.00017051 deg
M 244.800945311577 4.0455e-05 deg
tp 2459538.282176081782
(2021-Nov-19.78217608)
0.0003498 TDB
period 2930.593348205393
8.02
0.00011509
3.151e-07
d
yr
n .1228420177164645 4.824e-09 deg/d
Q 5.10181178109951 1.3357e-07 au
  Orbit Determination Parameters
   # obs. used (total)      85  
   data-arc span      3457 days (9.46 yr)  
   first obs. used      2005-07-31  
   last obs. used      2015-01-17  
   planetary ephem.      DE431  
   SB-pert. ephem.      SB431-N16  
   condition code      0  
   norm. resid. RMS      .71257  
   source      ORB  
   producer      Otto Matic  
   solution date      2017-Apr-09 16:59:41  

Additional Information
 Earth MOID = 1.90579 au 
 Jupiter MOID = .36988 au 
 T_jup = 2.982 
[ show covariance matrix ]

Ephemeris | Orbit Diagram | Orbital Elements | Mission Design | Physical Parameters | Discovery Circumstances | Close-Approach Data ]

Physical Parameter Table
Parameter Symbol Value Units Sigma Reference Notes
absolute magnitude H 15.9   n/a MPO353447  

413899 (2006 WN5)          Discovered 2006-Nov-16 by Spacewatch at Kitt Peak
Reference: Last Updated: 2014-11-10

[ show close-approach data ]
Alternate Designations
 2006 WN5 = 2005 OK25 
Ephemeris | Orbit Diagram | Orbital Elements | Mission Design | Physical Parameters | Discovery Circumstances | Close-Approach Data ]
ABOUT SSD CREDITS/AWARDS PRIVACY/COPYRIGHT GLOSSARY LINKS
FirstGov
(server date/time)  
NASA Home Page
Site Manager:   Ryan S. Park
Webmaster  Alan B. Chamberlin